• In Uzbekistan
  • List of Countries
  • For 7 days
  • Water Temperature
  • Satellite Maps
  • Weather Map
  • Weather Widgets
  • user-avatar
    Login

    Hourly Weather Ganja

    Today, 21 August, Tuesday

    Time Temperature Precipitation Wind Pressure Humidity
    00:00 +21°C° 0 mm 3 mps 727 mmHg 66%
    01:00 +21°C° 0 mm 3 mps 727 mmHg 68%
    02:00 +20°C° 0 mm 2 mps 727 mmHg 69%
    03:00 +20°C° 0 mm 2 mps 726 mmHg 72%
    04:00 +21°C° 0 mm 1 mps 726 mmHg 72%
    05:00 +21°C° 0 mm 1 mps 726 mmHg 72%
    06:00 +21°C° 0 mm 1 mps 726 mmHg 72%
    07:00 +22°C° 0 mm 1 mps 726 mmHg 67%
    08:00 +23°C° 0 mm 2 mps 726 mmHg 62%
    09:00 +25°C° 0 mm 2 mps 726 mmHg 58%
    10:00 +26°C° 0 mm 3 mps 726 mmHg 54%
    11:00 +27°C° 0 mm 3 mps 726 mmHg 51%
    12:00 +28°C° 0 mm 3 mps 725 mmHg 48%
    13:00 +29°C° 0 mm 3 mps 725 mmHg 46%
    14:00 +29°C° 0 mm 3 mps 725 mmHg 45%
    15:00 +30°C° 0 mm 3 mps 724 mmHg 43%
    16:00 +29°C° 0 mm 3 mps 724 mmHg 45%
    17:00 +29°C° 0 mm 3 mps 724 mmHg 47%
    18:00 +29°C° 0 mm 3 mps 724 mmHg 48%
    19:00 +28°C° 0 mm 3 mps 725 mmHg 51%
    20:00 +26°C° 0 mm 3 mps 725 mmHg 55%
    21:00 +25°C° 0 mm 2 mps 725 mmHg 58%
    22:00 +25°C° 0 mm 2 mps 725 mmHg 60%
    23:00 +24°C° 0 mm 2 mps 725 mmHg 61%

    Tomorrow, 22 August, Wednesday

    Time Temperature Precipitation Wind Pressure Humidity
    00:00 +24°C° 0 mm 2 mps 725 mmHg 63%
    01:00 +23°C° 0 mm 2 mps 725 mmHg 65%
    02:00 +22°C° 0 mm 1 mps 725 mmHg 67%
    03:00 +22°C° 0 mm 1 mps 724 mmHg 69%
    04:00 +22°C° 0 mm 1 mps 725 mmHg 69%
    05:00 +22°C° 0 mm 1 mps 725 mmHg 69%
    06:00 +22°C° 0 mm 1 mps 725 mmHg 69%
    07:00 +24°C° 0 mm 1 mps 725 mmHg 64%
    08:00 +25°C° 0 mm 2 mps 725 mmHg 59%
    09:00 +27°C° 0 mm 2 mps 724 mmHg 53%
    10:00 +28°C° 0 mm 2 mps 724 mmHg 49%
    11:00 +29°C° 0 mm 2 mps 724 mmHg 45%
    12:00 +30°C° 0 mm 2 mps 723 mmHg 41%
    13:00 +31°C° 0 mm 3 mps 723 mmHg 40%
    14:00 +33°C° 0 mm 3 mps 723 mmHg 38%
    15:00 +33°C° 0 mm 3 mps 723 mmHg 37%
    16:00 +33°C° 0 mm 3 mps 723 mmHg 38%
    17:00 +31°C° 0 mm 3 mps 723 mmHg 40%
    18:00 +31°C° 0 mm 3 mps 723 mmHg 42%
    19:00 +29°C° 0 mm 2 mps 724 mmHg 45%
    20:00 +28°C° 0 mm 2 mps 724 mmHg 48%
    21:00 +27°C° 0 mm 1 mps 725 mmHg 52%
    22:00 +26°C° 0 mm 1 mps 725 mmHg 53%
    23:00 +26°C° 0 mm 2 mps 725 mmHg 55%

    Day after tomorrow, 23 August, Thursday

    Time Temperature Precipitation Wind Pressure Humidity
    00:00 +25°C° 0 mm 2 mps 725 mmHg 57%
    01:00 +24°C° 0 mm 1 mps 725 mmHg 58%
    02:00 +24°C° 0 mm 1 mps 725 mmHg 60%
    03:00 +23°C° 0 mm 1 mps 725 mmHg 62%
    04:00 +23°C° 0 mm 1 mps 725 mmHg 62%
    05:00 +24°C° 0 mm 1 mps 725 mmHg 61%
    06:00 +24°C° 0 mm 1 mps 725 mmHg 61%
    07:00 +25°C° 0 mm 1 mps 725 mmHg 55%
    08:00 +27°C° 0 mm 2 mps 725 mmHg 49%
    09:00 +28°C° 0 mm 2 mps 725 mmHg 44%
    10:00 +30°C° 0 mm 2 mps 725 mmHg 40%
    11:00 +31°C° 0 mm 3 mps 725 mmHg 37%
    12:00 +33°C° 0 mm 3 mps 725 mmHg 34%
    13:00 +34°C° 0 mm 4 mps 725 mmHg 32%
    14:00 +34°C° 0 mm 5 mps 725 mmHg 31%
    15:00 +35°C° 0 mm 5 mps 724 mmHg 29%
    16:00 +34°C° 0 mm 5 mps 724 mmHg 31%
    17:00 +33°C° 0 mm 5 mps 725 mmHg 33%
    18:00 +33°C° 0 mm 5 mps 725 mmHg 35%
    19:00 +30°C° 0 mm 5 mps 725 mmHg 38%
    20:00 +29°C° 0 mm 5 mps 726 mmHg 41%
    21:00 +28°C° 0 mm 5 mps 726 mmHg 45%
    22:00 +27°C° 0 mm 5 mps 726 mmHg 46%
    23:00 +26°C° 0 mm 4 mps 726 mmHg 48%

    24 August, Friday

    Time Temperature Precipitation Wind Pressure Humidity
    00:00 +26°C° 0 mm 4 mps 726 mmHg 50%
    01:00 +25°C° 0 mm 4 mps 726 mmHg 51%
    02:00 +25°C° 0 mm 3 mps 726 mmHg 52%
    03:00 +24°C° 0 mm 3 mps 726 mmHg 53%
    04:00 +24°C° 0 mm 2 mps 726 mmHg 53%
    05:00 +24°C° 0 mm 2 mps 726 mmHg 54%
    06:00 +24°C° 0 mm 2 mps 726 mmHg 54%
    07:00 +25°C° 0 mm 2 mps 726 mmHg 49%
    08:00 +27°C° 0 mm 3 mps 726 mmHg 44%
    09:00 +28°C° 0 mm 3 mps 726 mmHg 39%
    10:00 +30°C° 0 mm 3 mps 726 mmHg 37%
    11:00 +32°C° 0 mm 4 mps 725 mmHg 34%
    12:00 +33°C° 0 mm 4 mps 725 mmHg 32%
    13:00 +33°C° 0 mm 5 mps 724 mmHg 31%
    14:00 +34°C° 0 mm 5 mps 724 mmHg 31%
    15:00 +34°C° 0 mm 5 mps 724 mmHg 30%
    16:00 +34°C° 0 mm 5 mps 724 mmHg 32%
    17:00 +33°C° 0 mm 5 mps 724 mmHg 35%
    18:00 +32°C° 0 mm 5 mps 724 mmHg 37%
    19:00 +30°C° 0 mm 5 mps 724 mmHg 40%
    20:00 +28°C° 0 mm 5 mps 725 mmHg 43%
    21:00 +27°C° 0 mm 5 mps 725 mmHg 45%
    22:00 +26°C° 0 mm 5 mps 725 mmHg 47%
    23:00 +25°C° 0 mm 4 mps 725 mmHg 49%

    25 August, Saturday

    Time Temperature Precipitation Wind Pressure Humidity
    00:00 +25°C° 0 mm 4 mps 725 mmHg 51%
    01:00 +24°C° 0 mm 3 mps 725 mmHg 53%
    02:00 +24°C° 0 mm 3 mps 725 mmHg 55%
    03:00 +23°C° 0 mm 2 mps 724 mmHg 57%
    04:00 +23°C° 0 mm 2 mps 724 mmHg 58%
    05:00 +23°C° 0 mm 1 mps 724 mmHg 59%
    06:00 +23°C° 0 mm 1 mps 725 mmHg 60%
    07:00 +24°C° 0 mm 2 mps 724 mmHg 54%
    08:00 +26°C° 0 mm 2 mps 724 mmHg 48%
    09:00 +27°C° 0 mm 2 mps 724 mmHg 42%
    10:00 +29°C° 0 mm 3 mps 724 mmHg 39%
    11:00 +30°C° 0 mm 3 mps 724 mmHg 35%
    12:00 +32°C° 0 mm 4 mps 724 mmHg 32%
    13:00 +33°C° 0 mm 4 mps 723 mmHg 31%
    14:00 +34°C° 0 mm 5 mps 723 mmHg 30%
    15:00 +34°C° 0 mm 5 mps 723 mmHg 29%
    16:00 +34°C° 0 mm 5 mps 723 mmHg 30%
    17:00 +33°C° 0 mm 5 mps 723 mmHg 32%
    18:00 +32°C° 0 mm 5 mps 723 mmHg 34%
    19:00 +29°C° 0 mm 5 mps 724 mmHg 36%
    20:00 +28°C° 0 mm 5 mps 724 mmHg 39%
    21:00 +26°C° 0 mm 6 mps 725 mmHg 41%
    22:00 +26°C° 0 mm 5 mps 724 mmHg 42%
    23:00 +25°C° 0 mm 5 mps 724 mmHg 44%

    26 August, Sunday

    Time Temperature Precipitation Wind Pressure Humidity
    00:00 +23°C° 0 mm 4 mps 724 mmHg 45%
    01:00 +24°C° 0 mm 3 mps 724 mmHg 47%
    02:00 +22°C° 0 mm 3 mps 724 mmHg 48%
    03:00 +23°C° 0 mm 2 mps 724 mmHg 50%
    04:00 +23°C° 0 mm 2 mps 724 mmHg 50%
    05:00 +22°C° 0 mm 1 mps 724 mmHg 51%
    06:00 +22°C° 0 mm 1 mps 724 mmHg 52%
    07:00 +24°C° 0 mm 1 mps 724 mmHg 47%
    08:00 +26°C° 0 mm 1 mps 724 mmHg 41%
    09:00 +27°C° 0 mm 2 mps 723 mmHg 36%
    10:00 +29°C° 0 mm 2 mps 723 mmHg 33%
    11:00 +30°C° 0 mm 3 mps 722 mmHg 30%
    12:00 +31°C° 0 mm 3 mps 722 mmHg 28%
    13:00 +33°C° 0 mm 4 mps 721 mmHg 27%
    14:00 +34°C° 0 mm 4 mps 721 mmHg 26%
    15:00 +34°C° 0 mm 4 mps 721 mmHg 25%
    16:00 +34°C° 0 mm 4 mps 721 mmHg 27%
    17:00 +33°C° 0 mm 4 mps 721 mmHg 29%
    18:00 +32°C° 0 mm 4 mps 721 mmHg 31%
    19:00 +29°C° 0 mm 4 mps 721 mmHg 34%
    20:00 +28°C° 0 mm 4 mps 721 mmHg 36%
    21:00 +27°C° 0 mm 5 mps 722 mmHg 39%
    22:00 +26°C° 0 mm 4 mps 722 mmHg 40%
    23:00 +25°C° 0 mm 3 mps 722 mmHg 42%
    Show more